Location: Newark
(13.8117°N, 3.6025°W)
Time: 11:58:57
(UTC+00:00)

Explorer 11/Cluster Stage 4 - Pass Details

Date: 02 September 2019
Orbit: 467 x 1260 km, 28.8° (Epoch: 20 September)

Event Time Altitude Azimuth Distance (km) Brightness Sun altitude
Rises 05:54:51 0° 273° (W) 2,891 - -2.8°
Exits shadow 05:55:24 - 275° (W) 2,701 8.7 -2.6°
Reaches altitude 10° 05:57:15 10° 285° (WNW) 2,098 8.2 -2.2°
Maximum altitude 06:01:34 29° 346° (NNW) 1,373 7.8 -1.1°
Drops below altitude 10° 06:06:50 10° 45° (NE) 2,573 10.2 0.1°
Sets 06:10:05 0° 56° (NE) 3,670 11.4 0.9°
